Location: San Antonio de Areco
(34.2500°S, 59.4670°W)
Time: 16:32:21
(UTC-03:00)

ISS - Visible Passes

Search period start: 18 December 2014 00:00
Search period end: 28 December 2014 00:00
Orbit: 404 x 414 km, 51.6° (Epoch: 18 December)

Date Brightness Start Highest point End Pass type
(mag) Time Alt. Az. Time Alt. Az. Time Alt. Az.
18 Dec -1.1 02:53:36 25° ESE 02:53:36 25° ESE 02:55:10 10° SE visible
18 Dec -0.8 04:26:36 10° WSW 04:28:43 16° SSW 04:30:51 10° S visible
19 Dec -1.6 03:37:30 24° SW 03:37:53 25° SW 03:40:44 10° SSE visible
20 Dec -1.1 02:48:34 26° SSE 02:48:34 26° SSE 02:50:20 10° SE visible
21 Dec 0.1 01:59:32 11° SE 01:59:32 11° SE 01:59:41 10° SE visible
21 Dec -0.5 03:32:15 11° SW 03:33:20 12° SSW 03:34:50 10° S visible
22 Dec -0.6 02:43:07 18° SSW 02:43:07 18° SSW 02:44:48 10° SSE visible
23 Dec 0.1 01:53:53 13° SSE 01:53:53 13° SSE 01:54:22 10° SSE visible
25 Dec 0.2 01:47:49 12° S 01:47:49 12° S 01:48:19 10° S visible
